Regional Weather Roundup
Issued by NWS

Home | Current Version | Previous Version | Text Only | Print | Product List | Glossary On
Versions: 1 2 3 4 5 6 7 8 9 10 11 12 13 14 15 16 17 18 19 20 21 22 23 24 25 26 27 28 29 30 31
000
ASUS45 KGTF 191110
RWRMT
MONTANA HOURLY WEATHER ROUNDUP
NATIONAL WEATHER SERVICE GREAT FALLS MT
500 AM MDT SUN APR 19 2015

NOTE: "FAIR" INDICATES FEW OR NO CLOUDS BELOW 12000 FEET WITH NO
SIGNIFICANT WEATHER AND/OR OBSTRUCTIONS TO VISIBILITY.

MTZ001>007-043-191200-
WEST OF THE DIVIDE

CITY           SKY/WX    TMP DP  RH WIND       PRES   REMARKS
KALISPELL      SUNNY     36  27  69 CALM      30.21R
MISSOULA       CLEAR     40  26  57 SE13      30.22S
BUTTE          CLEAR     24  20  84 CALM      30.24S
DEER LODGE       N/A     23  18  80 W3        30.28F
EUREKA           N/A     30  25  80 CALM      30.23R
HAMILTON         N/A     36  25  64 S6        30.20S WCI  31
LIBBY            N/A     30  25  80 CALM      30.22R
$$

MTZ008-052>055-191200-
SOUTHWEST MONTANA

CITY           SKY/WX    TMP DP  RH WIND       PRES   REMARKS
BOZEMAN        CLOUDY    29  25  85 SE3       30.27S
DILLON         CLEAR     30  23  75 E10       30.23R WCI  21
$$

MTZ009-010-012-014-046-048-049-054-191200-
EAST SLOPES AND CENTRAL MONTANA

CITY           SKY/WX    TMP DP  RH WIND       PRES   REMARKS
CUT BANK       CLEAR     24  20  84 W7        30.26F WCI  16
GREAT FALLS    PTCLDY    29  27  92 SW7       30.26S WCI  22
MALMSTROM AFB  CLEAR     32  31  94 W5        30.27S
HELENA         CLOUDY    36  27  69 W3        30.27S
$$

MTZ011-013-016-021-045-047-050-051-191200-
NORTH CENTRAL MONTANA

CITY           SKY/WX    TMP DP  RH WIND       PRES   REMARKS
HAVRE          CLEAR     25  19  78 SW10      30.26S WCI  15
LEWISTOWN      CLEAR     25  19  78 SW12      30.23F WCI  14
FORT BENTON      N/A     32  27  80 SW9       30.29S WCI  24
$$

MTZ017>020-022>042-056>058-061-062-191200-
EASTERN PLAINS

CITY           SKY/WX    TMP DP  RH WIND       PRES   REMARKS
BAKER          CLEAR     31  22  69 W16       30.07F WCI  20
BILLINGS       PTCLDY    33  25  72 W10       30.24S WCI  25
GLASGOW        CLEAR     33  24  69 W12       30.13S WCI  24
JORDAN           N/A     30  20  66 NW12      30.17S WCI  20
LIVINGSTON     CLOUDY    31  25  78 W6        30.25S WCI  25
MILES CITY     CLEAR     30  18  60 NW10      30.15S WCI  21
SIDNEY         CLOUDY    39  27  60 W17G24    30.03S WCI  30
WOLF POINT     CLEAR     32  25  75 W7        30.11R WCI  26
FORSYTH          N/A     36  23  60 W9        30.19S WCI  29
PLENTYWOOD       N/A     39  34  81 NW24      30.00R WCI  28
POPLAR           N/A     36  27  69 W14       30.08S WCI  27
$$

REGIONAL REPORTS...DAKOTAS

CITY           SKY/WX    TMP DP  RH WIND       PRES   REMARKS
WILLISTON      CLOUDY    41  31  67 NW20      29.98S
MINOT          CLOUDY    40  30  67 W14       29.87F
DICKINSON      CLEAR     33  26  75 W15       29.96S WCI  23
BEACH          FAIR      32  23  69 W16       30.04S WCI  21
CROSBY         PTSUNNY   39  34  81 NW18G24   29.95S WCI  30
WATFORD CITY   CLOUDY    37  28  70 W16       29.96S WCI  28
BISMARCK       MOCLDY    42  34  73 NW8       29.93R
GRAND FORKS    LGT RAIN  46  45  96 NW5       29.73F
FARGO          LGT RAIN  50  48  93 N7        29.71F FOG
BUFFALO SD       N/A     31  23  72 NW15      29.99R WCI  20
RAPID CITY     CLEAR     37  27  67 NW15      30.06R WCI  28
$$

REGIONAL REPORTS...WYOMING/IDAHO/WASHINGTON

CITY           SKY/WX    TMP DP  RH WIND       PRES   REMARKS
GILLETTE       MOCLDY    33  27  78 NW16      30.13S WCI  23
SHERIDAN       PTCLDY    33  26  75 NW13      30.20S WCI  24
BUFFALO WY     CLOUDY    35  25  66 N20G25    30.17S WCI  24
CODY           CLEAR     28  25  86 S3        30.23S
YELLOWSTONE LA   N/A     21  16  81 CALM      30.21S
IDAHO FALLS    PTCLDY    38  25  59 N10       30.16R WCI  31
SALMON         PTCLDY    32  25  74 CALM      30.17S
BOISE          PTCLDY    45  24  43 S9        30.12R
SPOKANE        MOCLDY    49  21  33 NW5       30.16S
$$

REGIONAL REPORTS...ALBERTA

CITY           SKY/WX    TMP DP  RH WIND       PRES   REMARKS
EDMONTON       CLEAR     30  18  59 W6        30.25S WCI  24
CALGARY        PTCLDY    25  16  68 N5        30.26F
LETHBRIDGE     CLEAR     21  19  93 SW7       30.28R WCI  13
MEDICINE HAT   CLEAR     25  21  86 SW5       30.27R
$$

REGIONAL REPORTS...SASKATCHEWAN

CITY           SKY/WX    TMP DP  RH WIND       PRES   REMARKS
SWIFT CURRENT  MOCLDY    32  30  93 NW13      30.15R WCI  22
REGINA         CLOUDY    37  34  87 NW21      30.00R WCI  27
SASKATOON      PTCLDY    34  30  86 NW10G17   30.14R WCI  26
$$



USA.gov is the U.S. government's official web portal to all federal, state and local government web resources and services.